www.pogodaiklimat.ru
ПОГОДА в Замине

Архив погоды в Замине (Джизакская область, Узбекистан)

Время
и дата
04:20 28.05
04:30 28.05
04:40 28.05
04:50 28.05
05:00 28.05
05:20 28.05
05:30 28.05
05:50 28.05
06:10 28.05
06:20 28.05
06:30 28.05
06:40 28.05
07:00 28.05
07:10 28.05
07:30 28.05
07:40 28.05
08:00 28.05
08:20 28.05
08:30 28.05
08:40 28.05
08:50 28.05
09:00 28.05
09:10 28.05
09:20 28.05
09:30 28.05
09:40 28.05
10:00 28.05
10:20 28.05
10:40 28.05
10:50 28.05
11:10 28.05
11:20 28.05
11:40 28.05
11:50 28.05
12:00 28.05
12:10 28.05
12:20 28.05
12:40 28.05
13:10 28.05
13:20 28.05
13:30 28.05
13:40 28.05
13:50 28.05
14:00 28.05
14:20 28.05
14:30 28.05
14:40 28.05
14:50 28.05
15:00 28.05
15:10 28.05
15:20 28.05
15:30 28.05
15:40 28.05
15:50 28.05
16:00 28.05
16:10 28.05
16:20 28.05
16:30 28.05
16:40 28.05
16:50 28.05
17:00 28.05
17:10 28.05
17:20 28.05
17:40 28.05
17:50 28.05
18:00 28.05
18:10 28.05
18:20 28.05
18:30 28.05
18:40 28.05
18:50 28.05
19:00 28.05
19:10 28.05
19:20 28.05
19:30 28.05
19:40 28.05
19:50 28.05
20:00 28.05
20:10 28.05
20:20 28.05
20:30 28.05
20:40 28.05
20:50 28.05
21:00 28.05
21:10 28.05
21:20 28.05
21:30 28.05
21:40 28.05
21:50 28.05
22:10 28.05
22:20 28.05
22:30 28.05
22:40 28.05
22:50 28.05
23:00 28.05
23:10 28.05
23:20 28.05
23:30 28.05
23:50 28.05
00:00 29.05
00:30 29.05
00:40 29.05
01:00 29.05
01:10 29.05
01:20 29.05
01:30 29.05
01:40 29.05
01:50 29.05
02:00 29.05
02:10 29.05
02:20 29.05
02:30 29.05
02:40 29.05
02:50 29.05
03:00 29.05
03:10 29.05
03:20 29.05
03:30 29.05
03:40 29.05
03:50 29.05
04:00 29.05
04:10 29.05
04:20 29.05
04:30 29.05
04:40 29.05
04:50 29.05
05:00 29.05
05:10 29.05
05:20 29.05
05:30 29.05
05:40 29.05
05:50 29.05
06:00 29.05
06:10 29.05
06:20 29.05
06:30 29.05
06:40 29.05
06:50 29.05
07:00 29.05
07:10 29.05
07:20 29.05
07:30 29.05
07:40 29.05
07:50 29.05
Ветер
(напр.,м/с)
Видимость Явления Солнечная радиация
(Вт/м2)
Т
(С)
Тd
(С)
f
(%)
Тe
(С)
Тes
(С)
Комфортность P
(гПа)
Po
(гПа)
Тmin
(С)
Tmax
(С)
R
(мм)
Ю 3.2
{4.7}
+18.6 +9.8 56 +19 +19 1012.5 951.3 +18.7 +18.1
Ю 3.1
{4.1}
+18.6 +9.9 57 +19 +19 1012.6 951.4 +18.7 +18.2
Ю 3.2
{4.4}
+18.8 +10.0 57 +20 +20 1012.7 951.5 +19.0 +18.6
Ю 3.5
{4.6}
+18.6 +10.3 58 +19 +19 1012.8 951.6 +18.9 +18.6
Ю 3.4
{4.7}
+18.8 +10.2 57 +19 +19 1012.9 951.7 +18.9 +18.6
Ю 3.4
{4.6}
+18.4 +10.6 61 +19 +19 1012.9 951.7 +18.7 +18.4
Ю 3.1
{4.5}
+18.7 +10.4 58 +19 +19 1013.0 951.8 +18.8 +18.3
Ю 3.6
{5.0}
+19.4 +10.3 56 +21 +21 комфорт 1013.3 952.1 +19.4 +19.2
ЮЗ 2.7
{4.6}
+19.7 +11.0 57 +21 +21 комфорт 1013.3 952.1 +19.7 +19.5
ЮЗ 2.7
{4.5}
+20.1 +10.4 54 +22 +22 комфорт 1013.3 952.1 +20.1 +19.7
ЮЗ 3.1
{4.9}
+20.5 +10.7 54 +23 +23 комфорт 1013.4 952.2 +20.4 +20.1
ЮЗ 2.9
{4.2}
+20.8 +10.7 52 +23 +23 комфорт 1013.6 952.3 +20.8 +20.5
ЮЗ 3.3
{5.4}
+21.0 +11.1 53 +23 +23 комфорт 1013.8 952.5 +21.0 +20.7
ЮЗ 4.1
{6.5}
+21.3 +8.4 44 +22 +22 комфорт 1013.9 952.6 +21.3 +21.0
ЮЗ 3.8
{6.0}
+21.6 +7.1 39 +22 +22 комфорт 1013.9 952.6 +21.7 +21.4
З 4.2
{5.7}
+22.0 +6.2 36 +23 +23 комфорт 1013.9 952.6 +21.9 +21.5
З 4.0
{6.2}
+22.3 +4.6 32 +23 +23 комфорт 1014.1 952.8 +22.2 +21.7
З 4.4
{6.3}
+22.2 +4.4 31 +22 +22 комфорт 1014.2 952.9 +22.3 +21.6
З 3.8
{6.0}
+22.6 +4.2 30 +23 +23 комфорт 1014.3 953.0 +22.6 +22.1
З 3.9
{6.5}
+22.2 +5.1 33 +23 +23 комфорт 1014.3 953.0 +23.0 +22.0
З 4.0
{6.0}
+22.6 +4.0 30 +23 +23 комфорт 1014.4 953.1 +22.9 +22.2
З 3.4
{5.8}
+22.6 +4.7 31 +23 +23 комфорт 1014.4 953.1 +23.3 +22.6
З 3.5
{5.7}
+23.4 +2.7 26 +23 +23 комфорт 1014.4 953.1 +23.6 +22.4
З 3.6
{5.8}
+23.6 +3.5 27 +23 +23 комфорт 1014.4 953.1 +23.9 +23.2
З 3.4
{5.9}
+23.9 +4.0 27 +23 +23 комфорт 1014.4 953.1 +24.3 +23.6
З 3.6
{6.1}
+24.0 +3.5 26 +23 +23 комфорт 1014.4 953.1 +24.3 +23.7
З 3.4
{5.7}
+24.5 +4.0 26 +24 +24 комфорт 1014.3 953.0 +24.7 +24.1
СЗ 3.2
{6.4}
+25.1 +3.1 24 +24 +24 комфорт 1014.3 953.0 +25.6 +24.6
СЗ 2.9
{5.6}
+25.8 +4.7 26 +25 +25 комфорт 1014.4 953.1 +25.9 +25.4
СЗ 3.1
{5.9}
+25.8 +1.3 20 +24 +24 комфорт 1014.5 953.2 +26.0 +25.5
СЗ 3.3
{6.5}
+25.6 +2.8 23 +24 +24 комфорт 1014.6 953.3 +26.4 +25.4
СЗ 3.8
{7.4}
+26.5 +1.7 20 +25 +25 комфорт 1014.6 953.3 +26.6 +25.6
СЗ 3.7
{8.3}
+26.8 +1.5 19 +25 +25 комфорт 1014.7 953.4 +26.7 +25.9
СЗ 3.9
{7.3}
+26.6 -0.2 17 +25 +25 комфорт 1014.7 953.4 +26.9 +26.3
СЗ 4.2
{7.7}
+26.4 -1.5 16 +24 +24 комфорт 1014.7 953.4 +26.7 +25.9
СЗ 2.9
{5.4}
+26.5 +1.2 19 +25 +25 комфорт 1014.7 953.4 +26.9 +26.2
С 3.2
{7.3}
+27.1 +1.0 18 +25 +25 комфорт 1014.7 953.4 +27.3 +26.5
СЗ 3.7
{6.6}
+26.9 0.0 17 +25 +25 комфорт 1014.8 953.5 +26.9 +26.6
С 3.5
{7.8}
+26.9 -0.9 16 +25 +25 комфорт 1014.7 953.4 +27.4 +26.9
С 2.5
{5.8}
+27.4 -1.2 15 +25 +25 комфорт 1014.7 953.4 +27.9 +26.9
СЗ 2.5
{6.9}
+27.5 -0.2 16 +25 +25 комфорт 1014.6 953.3 +27.9 +27.3
СЗ 2.8
{7.1}
+27.8 +0.4 17 +26 +26 жарко 1014.6 953.3 +28.0 +27.2
З 3.5
{8.5}
+27.5 +0.3 17 +25 +25 комфорт 1014.6 953.3 +27.9 +26.6
СЗ 3.4
{6.4}
+27.1 0.0 17 +25 +25 комфорт 1014.6 953.3 +27.7 +26.8
СЗ 3.4
{8.0}
+27.2 -0.6 16 +25 +25 комфорт 1014.6 953.3 +28.2 +27.1
СЗ 2.8
{5.7}
+27.6 -1.3 15 +25 +25 комфорт 1014.6 953.3 +27.9 +27.2
СЗ 2.8
{5.7}
+27.6 -0.4 16 +25 +25 комфорт 1014.6 953.3 +27.7 +26.8
СЗ 3.0
{8.0}
+27.7 -0.7 16 +25 +25 комфорт 1014.6 953.3 +27.8 +26.7
С 2.1
{4.3}
+27.8 +0.5 17 +26 +26 жарко 1014.5 953.2 +28.4 +27.5
СЗ 3.7
{7.3}
+27.3 -0.1 17 +25 +25 комфорт 1014.5 953.2 +28.0 +27.3
СЗ 3.6
{7.2}
+27.7 +0.4 17 +26 +26 жарко 1014.5 953.2 +28.2 +27.2
СЗ 2.6
{5.9}
+28.2 -0.5 15 +26 +26 жарко 1014.5 953.2 +28.4 +27.2
СЗ 3.5
{9.2}
+28.2 +0.1 16 +26 +26 жарко 1014.5 953.2 +28.5 +27.5
СЗ 4.6
{8.5}
+27.6 -0.9 16 +25 +25 комфорт 1014.5 953.2 +28.4 +27.6
СЗ 3.5
{7.5}
+28.2 -0.5 15 +26 +26 жарко 1014.5 953.2 +28.6 +27.1
СЗ 3.8
{7.8}
+27.0 +1.1 19 +25 +25 комфорт 1014.5 953.2 +28.2 +26.8
СЗ 2.8
{9.2}
+27.9 +1.1 18 +26 +26 жарко 1014.5 953.2 +28.1 +27.0
С 3.9
{6.9}
+27.2 +1.7 19 +25 +25 комфорт 1014.6 953.3 +27.9 +27.2
СЗ 3.0
{5.4}
+27.6 +1.7 19 +26 +26 жарко 1014.6 953.3 +27.7 +27.1
СЗ 4.0
{6.6}
+27.2 +2.2 20 +26 +26 жарко 1014.5 953.2 +27.9 +27.1
СЗ 3.3
{7.9}
+27.4 +1.8 19 +26 +26 жарко 1014.5 953.2 +27.4 +27.2
СЗ 3.9
{7.2}
+27.4 +1.3 18 +25 +25 комфорт 1014.5 953.2 +27.5 +27.2
СЗ 4.6
{7.0}
+27.4 +0.6 17 +25 +25 комфорт 1014.5 953.2 +27.8 +27.3
СЗ 4.9
{7.6}
+27.1 -0.2 17 +25 +25 комфорт 1014.5 953.2 +27.7 +27.1
СЗ 4.3
{7.4}
+27.1 -0.3 17 +25 +25 комфорт 1014.5 953.2 +27.2 +27.0
СЗ 4.3
{6.8}
+26.9 +0.4 18 +25 +25 комфорт 1014.6 953.3 +27.2 +26.9
СЗ 4.4
{6.9}
+26.7 +0.7 18 +25 +25 комфорт 1014.6 953.3 +26.9 +26.7
СЗ 4.0
{6.9}
+26.6 +0.4 18 +25 +25 комфорт 1014.6 953.3 +26.9 +26.6
СЗ 4.2
{6.5}
+26.3 +2.1 21 +25 +25 комфорт 1014.6 953.3 +26.6 +26.2
СЗ 3.6
{5.8}
+26.0 +2.2 21 +25 +25 комфорт 1014.6 953.3 +26.3 +26.0
СЗ 3.3
{5.1}
+25.7 +1.8 21 +24 +24 комфорт 1014.7 953.4 +26.0 +25.7
СЗ 2.6
{4.0}
+25.4 +3.2 24 +24 +24 комфорт 1014.8 953.5 +25.7 +25.4
СЗ 2.1
{3.2}
+25.1 +3.5 25 +24 +24 комфорт 1014.8 953.5 +25.4 +25.1
СЗ 2.1
{3.5}
+24.6 +4.3 27 +24 +24 комфорт 1014.8 953.5 +25.1 +24.6
СЗ 1.8
{2.7}
+24.1 +4.6 28 +24 +24 комфорт 1014.9 953.6 +24.6 +24.1
СЗ 1.6
{2.2}
+23.8 +4.5 29 +24 +24 комфорт 1014.9 953.6 +24.1 +23.8
СЗ 1.5
{2.5}
+23.4 +4.4 29 +23 +23 комфорт 1014.9 953.6 +23.8 +23.4
СЗ 1.7
{2.6}
+23.2 +4.1 29 +23 +23 комфорт 1014.9 953.6 +23.5 +23.2
СЗ 1.5
{2.6}
+23.0 +4.0 29 +23 +23 комфорт 1014.9 953.6 +23.2 +23.0
СЗ 1.1
{1.8}
+22.7 +3.8 29 +23 +23 комфорт 1015.0 953.7 +23.0 +22.7
С 1.3
{2.2}
+22.5 +3.8 29 +22 +22 комфорт 1015.0 953.7 +22.7 +22.5
С 1.4
{2.2}
+22.5 +3.9 30 +23 +23 комфорт 1015.1 953.8 +22.7 +22.5
С 0.8
{1.6}
+22.2 +4.0 30 +22 +22 комфорт 1015.1 953.8 +22.5 +22.1
СВ 1.4
{3.1}
+22.7 +3.7 29 +23 +23 комфорт 1015.2 953.9 +22.6 +22.2
В 1.2
{1.9}
+22.4 +4.3 31 +23 +23 комфорт 1015.3 954.0 +22.7 +22.4
ЮВ 1.1
{1.8}
+22.0 +4.7 32 +22 +22 комфорт 1015.4 954.1 +22.4 +22.0
В 1.0
{1.9}
+22.1 +3.9 30 +22 +22 комфорт 1015.4 954.1 +22.3 +22.0
В 1.2
{1.9}
+21.7 +4.6 33 +22 +22 комфорт 1015.4 954.1 +22.1 +21.7
ЮВ 1.5
{2.9}
+21.9 +4.0 31 +22 +22 комфорт 1015.4 954.1 +22.1 +21.7
В 1.6
{2.7}
+21.8 +3.9 31 +22 +22 комфорт 1015.4 954.1 +22.0 +21.5
ЮВ 1.6
{2.4}
+21.4 +4.3 33 +22 +22 комфорт 1015.4 954.1 +21.8 +21.4
ЮВ 1.8
{2.6}
+21.3 +4.0 32 +22 +22 комфорт 1015.3 954.0 +21.5 +21.3
ЮВ 2.1
{3.2}
+21.2 +4.0 32 +21 +21 комфорт 1015.2 953.9 +21.3 +21.1
ЮВ 1.9
{2.8}
+21.0 +3.9 32 +22 +22 комфорт 1015.2 953.9 +21.2 +21.0
ЮВ 2.6
{3.6}
+21.2 +3.7 32 +21 +21 комфорт 1015.1 953.8 +21.2 +20.9
ЮВ 2.1
{3.1}
+21.2 +3.9 32 +21 +21 комфорт 1015.1 953.8 +21.3 +21.2
Ю 1.9
{2.8}
+20.9 +4.1 33 +22 +22 комфорт 1015.1 953.8 +21.2 +20.9
Ю 1.4
{2.0}
+20.4 +4.7 36 +22 +22 комфорт 1015.1 953.8 +20.9 +20.5
СЗ 2.0
{5.3}
+19.8 +4.6 37 +21 +21 комфорт 1015.3 954.0 +20.6 +19.8
З 2.8
{5.2}
+19.3 +5.5 40 +20 +20 1015.2 953.9 +19.8 +19.3
З 1.7
{3.7}
+18.3 +5.7 44 +19 +19 1015.2 953.9 +18.5 +18.2
З 1.5
{2.9}
+18.0 +5.6 44 +19 +19 1015.1 953.8 +18.3 +18.0
З 2.1
{4.5}
+17.7 +5.8 46 +18 +18 1015.1 953.8 +18.1 +17.7
З 1.5
{2.4}
+17.3 +5.9 47 +18 +18 1015.1 953.8 +17.7 +17.3
ЮЗ 1.6
{3.6}
+17.4 +6.1 47 +18 +18 1015.2 953.9 +17.4 +17.3
ЮЗ 2.0
{3.9}
+17.9 +5.5 44 +18 +18 1015.2 953.9 +17.9 +17.3
З 1.2
{3.9}
+17.8 +5.6 45 +19 +19 1015.2 953.9 +18.1 +17.7
ЮЗ 1.7
{3.0}
+17.6 +5.8 46 +18 +18 1015.2 953.9 +17.9 +17.6
ЮЗ 2.3
{3.0}
+17.2 +6.2 48 +17 +17 1015.2 953.9 +17.7 +17.2
ЮЗ 2.7
{3.7}
+17.2 +6.1 48 +17 +17 1015.2 953.9 +17.2 +17.1
ЮЗ 3.1
{4.5}
+16.9 +6.4 50 +17 +17 1015.2 953.9 +17.3 +16.9
ЮЗ 3.5
{5.1}
+16.6 +6.7 52 +16 +16 1015.3 954.0 +16.9 +16.5
ЮЗ 3.5
{5.5}
+17.1 +6.2 48 +17 +17 1015.2 953.9 +17.1 +16.6
ЮЗ 3.4
{5.5}
+17.0 +6.2 49 +17 +17 1015.2 953.9 +17.2 +17.0
ЮЗ 3.7
{5.6}
+17.0 +6.1 48 +17 +17 1015.3 954.0 +17.1 +17.0
ЮЗ 4.0
{6.3}
+16.8 +6.1 49 +16 +16 1015.2 953.9 +17.0 +16.8
ЮЗ 4.0
{6.3}
+16.5 +6.2 51 +16 +16 1015.3 954.0 +16.8 +16.5
ЮЗ 4.1
{6.4}
+16.6 +6.0 50 +16 +16 1015.3 954.0 +16.6 +16.4
ЮЗ 3.8
{5.9}
+16.4 +6.0 50 +16 +16 1015.3 954.0 +16.6 +16.4
ЮЗ 3.8
{5.5}
+16.3 +5.9 50 +16 +16 1015.2 953.9 +16.6 +16.3
ЮЗ 3.9
{5.7}
+16.3 +6.0 50 +16 +16 1015.3 954.0 +16.4 +16.2
ЮЗ 3.9
{6.0}
+16.4 +5.8 49 +16 +16 1015.3 954.0 +16.4 +16.2
ЮЗ 3.6
{5.4}
+16.4 +5.8 49 +16 +16 1015.3 954.0 +16.4 +16.3
ЮЗ 3.5
{6.1}
+16.4 +5.7 49 +16 +16 1015.3 954.0 +16.6 +16.4
ЮЗ 3.2
{5.1}
+16.2 +5.6 49 +16 +16 1015.3 954.0 +16.4 +16.2
ЮЗ 3.2
{4.7}
+16.2 +5.6 49 +16 +16 1015.3 954.0 +16.3 +16.2
ЮЗ 3.0
{4.5}
+16.1 +5.5 49 +16 +16 1015.3 954.0 +16.3 +16.1
ЮЗ 3.2
{4.6}
+16.1 +5.4 49 +16 +16 1015.4 954.1 +16.2 +16.0
ЮЗ 3.0
{4.9}
+16.1 +5.4 49 +16 +16 1015.4 954.1 +16.2 +16.1
ЮЗ 2.7
{4.4}
+16.3 +5.0 47 +16 +16 1015.4 954.1 +16.3 +16.1
ЮЗ 3.0
{4.7}
+16.6 +5.0 46 +16 +16 1015.4 954.1 +16.6 +16.3
ЮЗ 2.7
{4.4}
+16.8 +5.1 46 +17 +17 1015.4 954.1 +16.8 +16.6
ЮЗ 2.7
{4.0}
+17.0 +5.2 46 +17 +17 1015.4 954.1 +17.0 +16.8
ЮЗ 2.7
{4.4}
+17.2 +5.2 45 +17 +17 1015.4 954.1 +17.2 +16.9
ЮЗ 2.9
{4.6}
+17.5 +4.8 43 +18 +18 1015.4 954.1 +17.5 +17.2
ЮЗ 2.8
{4.3}
+17.8 +4.8 42 +18 +18 1015.4 954.1 +17.8 +17.5
ЮЗ 2.9
{4.9}
+18.2 +4.5 40 +18 +18 1015.4 954.1 +18.3 +17.8
ЮЗ 3.1
{4.5}
+18.4 +4.2 39 +19 +19 1015.3 954.0 +18.5 +18.2
ЮЗ 3.3
{4.6}
+18.5 +4.0 38 +19 +19 1015.3 954.0 +18.7 +18.3
ЮЗ 3.0
{4.8}
+18.9 +3.0 35 +19 +19 1015.3 954.0 +19.0 +18.5
ЮЗ 3.2
{4.7}
+19.1 +2.7 33 +20 +20 1015.3 954.0 +19.3 +18.9
ЮЗ 2.9
{4.3}
+19.6 +3.7 35 +20 +20 1015.3 954.0 +19.7 +19.1
ЮЗ 3.0
{4.1}
+19.7 +3.0 33 +20 +20 1015.3 954.0 +19.8 +19.4
З 3.0
{4.9}
+19.6 +2.1 31 +20 +20 1015.3 954.0 +20.1 +19.5
Местоположение метеостанции Замин (Джизакская область, Узбекистан): широта 40.00 долгота 68.43 высота над уровнем моря 0 м.
В архиве по умолчанию представлена погода в Замине за последние 1-2 суток. Обновление информации о фактической погоде в базе происходит ежечасно! Архивные данные за месяц целиком и за предыдущие месяцы Вы можете получить, выбрав интересующий диапазон дат из раскрывающегося списка и нажав кнопку "Ввод!".
*Определитесь, кто Вы:
Внимание! Время в таблицах - местное (без учета летнего времени). Для получения всемирного времени необходимо вычесть поправку, которая равна 5 ч.
Смотрите также архив погоды на ближайших метеорологических станциях:
Партнеры нашего сайта:      
Пояснения к столбцам:
  • Ветер - указаны скорость ветра в м/с - средняя за 10 мин, порывы в срок и между сроками (в фигурных скобках) и направление, откуда дует ветер: С - северный,
  • СВ - северо-восточный, В - восточный, ЮВ - юго-восточный, Ю - южный, ЮЗ - юго-западный, З - западный, СЗ - северо-западный.
  • Видимость - горизонтальная дальность видимости в метрах или километрах. При видимости от 1 до 10 км при отсутствии осадков обычно наблюдается дымка, при ухудшении видимости до 1 км и менее - туман. В сухую погоду видимость может ухудшаться дымом, пылью или мглою.
  • Явления - указаны атмосферные явления, наблюдавшиеся в срок или в последний час перед сроком.
  • Солнечная радиация - мощность потока солнечного излучения на поверхность земли и предметов в Вт/м2.
  • T - Температура воздуха - температура, измеренная на высоте 2 м над землей.
  • Td - Температура точки росы - температура, при понижении до которой содержащийся в воздухе водяной пар достигнет насыщения.
  • f - Относительная влажность воздуха - влажноcть воздуха, измеренная на высоте 2 м над землей.
  • Te - Эффективная температура - температура, которую ощущает одетый по сезону человек в тени. Характеристика душности погоды. При расчете учитывается влияние влажности воздуха и скорости ветра на теплоощущения человека.
  • Tes - Эффективная температура на солнце - температура, которую ощущает человек, с поправкой на солнечный нагрев. Характеристика знойности погоды. Зависит от высоты солнца над горизонтом, облачности и скорости ветра. Ночью, в пасмурную погоду, а также при ветре 12 м/с и более поправка равна нулю.
  • P - Атмосферное давление - приведенное к уровню моря атмосферное давление.
  • Po - Атмосферное давление - измеренное на уровне метеостанции атмосферное давление.
  • Tmin - Минимальная температура - минимум температуры воздуха на высоте 2 м над землей.
  • Tmax - Максимальная температура - максимум температуры воздуха на высоте 2 м над землей.
  • R - Количество осадков - Количество выпавших осадков за период времени, мм. При наведении курсора мыши на число - период времени, за который выпало указанное количество осадков.